Location: Gro� Glienicke
(52.4675°N, 13.1079°E)
Time: 07:50:47
(UTC+00:00)

Meteor 1-27 - Pass Details

Date: 06 July 2020
Orbit: 838 x 892 km, 81.3° (Epoch: 04 August)

Event Time Altitude Azimuth Distance (km) Brightness Sun altitude
Rises 20:13:47 0° 348° (NNW) 3,449 8.6 -5.5°
Reaches altitude 10° 20:16:14 10° 351° (N) 2,517 7.7 -5.7°
Maximum altitude 20:21:56 66° 74° (ENE) 954 4.4 -6.3°
Drops below altitude 10° 20:27:40 10° 156° (SSE) 2,535 6.1 -6.8°
Enters shadow 20:28:19 - 157° (SSE) 2,779 6.3 -6.9°
